Location: Glens Falls
(43.3090°N, 73.6440°W)
Time: 11:45:34
(UTC-04:00)

YAOGAN 6 - Pass Details

Date: 24 February 2018
Orbit: 466 x 508 km, 97.1° (Epoch: 23 June)

Event Time Altitude Azimuth Distance (km) Brightness Sun altitude
Exits shadow 19:26:44 24° 16° (NNE) 1,041 4.1 -20.6°
Drops below altitude 10° 19:28:26 10° 1° (N) 1,680 5.3 -20.9°
Sets 19:30:33 0° 355° (N) 2,558 6.4 -21.3°
